STARLINK-37161, 68565

Orbit data source: Space-Track

STARLINK-37161, 68565 is a payload satellite owned by SpaceX/Seattle (US) in LEO that was launched on Thu, 02 Apr 2026 UTC via an FALCON 9 launch vehicle from the Air Force Eastern Test Range (AFETR). Payload-class satellites include a variety of spacecraft equipped with specific instruments for various scientific and technological missions. These include communications satellites like Starlink; space stations such as the ISS; scientific satellites like the Hubble; Earth observation satellites from companies like Planet Labs, Umbra, and HawkEye 360; GPS; miniature CubeSats for education and research; and military/defense satellites.

Loading next visibility...
Identifier
68565, 2026-070Z
Orbit
LEO
Country
Flag of USUS
Related business
Manufacturer
SpaceX/Seattle
Mission
Operational Commercial Communications
Bus & Motor
STARLINK V2MO, Unknown motor
Mass
575 kg wet, ~530 kg dry
Launch date (UTC)
2026-04-02 (5 months ago)
Launch vehicle
FALCON 9
Launch site
Air Force Eastern Test Range (AFETR)
Object type
Payload
Rocket body
Debris
Shape & HBR
Box + 1 Pan, 17.7 m
Radar Cross Section
41.120 m², Large (>1 m²)

Expand to show TLE details & history
Last TLE update: 10 hours ago

TLE from 10 hours ago
0 STARLINK-37161
1 68565U 26070Z   26247.03480422  .00011131  00000-0  34012-3 0  9999
2 68565  53.1575 250.3688 0001330  95.4157 264.6997 15.34396606 23919
Epoch: 2026-09-04T00:50Z
TLE epoch observation values (Epoch: 2026-09-04T00:50:07.084Z)
Latitude
-0.00005°
Longitude
-105.32517°
Altitude
463.699 km
Speed
7.636 km/s
True Right ascension
16h 41m 28s
True Declination
0° 00' 00"
Sunlit
Object was in daylight at epoch
Visualization orbit readout
Latitude
Unknown
Longitude
Unknown
Altitude
Unknown
Speed
Unknown
Apparent Right ascension
Unknown
Apparent Declination
Unknown
Sunlit
N/A
Visualization observer readout
Local Sidereal Time
02:16:55
Azimuth
Unknown
Elevation
Unknown
Doppler factor
Unknown
Orbital elements
Apogee altitude
463.88 km
Perigee altitude
462.061 km
Semi-major axis
6,841.108 km
Eccentricity
0.00013
Inclination
53.1575°
RAAN
250.3688°
Arg. of periapsis
95.4157°
True anomaly
264.68452°
Mean anomaly
264.6997°
Eccentric anomaly
264.69211°
Mean motion
3.83578 °/min
Orbital period
93.85 mins
BSTAR
0.00034012
Loading maneuver chart data...
Computing Atmospheric mass density...
Loading historical data...
Loading historical data...
Loading historical data...
Loading historical data...
Loading historical data...
Loading historical data...
Loading historical data...

Documentation

Showing up to 5 results
|